Regional Weather Roundup
Issued by NWS

Home | Current Version | Previous Version | Graphics & Text | Print | Product List | Glossary Off
Versions: 1 2 3 4 5 6 7 8 9 10 11 12 13 14 15 16 17 18 19 20 21 22 23 24 25 26 27 28 29 30 31 32 33 34 35 36 37 38 39 40 41 42 43 44 45 46 47 48 49 50

000
ASUS43 KDMX 241107
RWRIA

WEATHER ROUNDUP FOR IOWA
NATIONAL WEATHER SERVICE DES MOINES IA
600 AM CDT THU JUL 24 2014

NOTE: "FAIR" INDICATES FEW OR NO CLOUDS BELOW 12,000 FEET WITH NO
SIGNIFICANT WEATHER AND/OR OBSTRUCTIONS TO VISIBILITY.

* - THESE STATIONS ARE NOT NWS STATIONS...THUS NOT UNDER NWS
QUALITY CONTROL.  THEY ALSO DO NOT REPORT WEATHER SUCH
AS PRECIPITATION OR FOG.

IAZ001>003-012>014-020>022-031>034-043>046-241200-
   NORTHWEST IOWA

CITY           SKY/WX    TMP DP  RH WIND       PRES   REMARKS
CARROLL *      CLEAR     55  54  94 CALM      30.16R FOG
CHEROKEE *     CLEAR     59  59 100 CALM      30.14F
DENISON *      CLEAR     61  59  94 CALM      30.13F
LE MARS *      PTCLDY    63  59  88 CALM      30.13F
ORANGE CITY *  CLEAR     64  57  77 E3        30.13F
SHELDON *      CLEAR     57  55  94 E6        30.13F
SIOUX CITY     PTCLDY    62  60  93 SE6       30.12S
SPENCER        CLEAR     56  53  90 CALM      30.15F
STORM LAKE *   CLEAR     61  59  94 SE6       30.16S
$$

IAZ055>058-069>071-079>083-090>094-241200-
   SOUTHWEST IOWA

CITY           SKY/WX    TMP DP  RH WIND       PRES   REMARKS
ATLANTIC *     CLEAR     57  55  94 N3        30.15S
AUDUBON *      CLEAR     57  55  94 CALM      30.17S
CLARINDA *     CLEAR     57  57 100 CALM      30.16S
COUNCIL BLFS *   N/A     64  61  88 SE7       30.13S
CRESTON *      CLEAR     61  57  88 CALM      30.17R
HARLAN  *      CLEAR     59  57  94 CALM      30.18S
LAMONI         CLEAR     60  58  92 CALM      30.16R
RED OAK *      CLEAR     61  59  94 CALM      30.14S
SHENANDOAH *   CLEAR     64  59  82 E5        30.15R
$$

IAZ047>049-059>061-072>074-084-241200-
   CENTRAL IOWA

CITY           SKY/WX    TMP DP  RH WIND       PRES   REMARKS
AMES           CLEAR     57  56  96 CALM      30.16R
ANKENY *       CLEAR     59  59 100 N3        30.16S
CHARITON *     CLEAR     59  57  94 CALM      30.16S
DES MOINES     CLEAR     64  58  80 CALM      30.15R
GRINNELL*      CLEAR     57  55  94 CALM      30.17S
KNOXVILLE *    CLEAR     63  57  82 CALM      30.14S
MARSHALLTOWN   CLEAR     59  56  89 CALM      30.16S
PELLA *        CLEAR     59  57  94 CALM      30.16S
PERRY *          N/A     55  55 100 CALM      30.16S
$$

IAZ004>006-015-016-023>025-035-036-241200-
   NORTH CENTRAL IOWA

CITY           SKY/WX    TMP DP  RH WIND       PRES   REMARKS
ALGONA *       PTCLDY    59  57  94 E3        30.16F
CLARION *      CLEAR     55  55 100 SE3       30.16S
ESTHERVILLE    CLEAR     54  52  93 CALM      30.15F
FORT DODGE *   CLEAR     57  55  94 CALM      30.16F
MASON CITY     CLEAR     51  51 100 CALM      30.19S
FOREST CITY *  CLEAR     52  52 100 CALM      30.17S
IOWA FALLS *     N/A     57  54  88 CALM      30.18R
$$

IAZ007>011-017>019-026>030-037>042-050>054-066-241200-
   NORTHEAST IOWA

CITY           SKY/WX    TMP DP  RH WIND       PRES   REMARKS
CEDAR RAPIDS   CLEAR     58  56  93 E6        30.16S
CHARLES CITY * CLEAR     55  54  94 N5        30.18S
CLINTON *      MOCLDY    57  54  88 E3        30.21S
DECORAH *      CLEAR     57  55  94 SE3       30.17S
DUBUQUE        MOCLDY    55  51  86 CALM      30.19S
MONTICELLO *   MOCLDY    55  55 100 CALM      30.18S
OELWEIN *      CLEAR     57  55  94 E5        30.19R
WATERLOO       FOG       54  53  97 NE3       30.16R VSB 1/2
$$

IAZ064-065-067-068-078-241200-
   EAST CENTRAL IOWA

CITY           SKY/WX    TMP DP  RH WIND       PRES   REMARKS
DAVENPORT      CLEAR     54  52  93 E3        30.18S
IOWA CITY      CLEAR     59  56  89 E3        30.18R
MT. PLEASANT * CLEAR     57  55  94 E5        30.16S
MUSCATINE *    CLEAR     55  54  94 CALM      30.17S
QUAD CITIES    PTCLDY    57  54  89 CALM      30.17R
$$

IAZ062-063-075>077-085>089-095>099-241200-
   SOUTHEAST IOWA

CITY           SKY/WX    TMP DP  RH WIND       PRES   REMARKS
BURLINGTON     CLEAR     58  55  90 CALM      30.16S
FAIRFIELD *    CLEAR     59  55  88 N6        30.16S
FORT MADISON * CLEAR     57  57 100 CALM      30.17S
KEOKUK *       CLEAR     59  57  94 E5        30.15S
OSKALOOSA *      N/A     57  55  94 N5        30.16S
CENTERVILLE *  CLEAR     54  54 100 N3        30.17S
OTTUMWA        CLEAR     56  54  93 N5        30.15S
WASHINGTON *   CLEAR     57  57 100 E3        30.17R
$$

ABBREVIATIONS USED IN REMARKS
   TC - TEMPERATURES IN CELSIUS
  WCI - WIND CHILL INDEX
   HX - HEAT INDEX
  VSB - VISIBILITY
$$



USA.gov is the U.S. government's official web portal to all federal, state and local government web resources and services.